THORAD DELTA 1 DEB, 8159

Orbit data source: Space-Track

THORAD DELTA 1 DEB, 8159 is space debris in SSO originally from a launch on Fri, 15 Nov 1974 UTC launched from the Air Force Western Test Range (AFWTR). Debris objects in space refer to the collection of defunct objects orbiting the Earth. Examples of debris include non-operational satellites, rocket bodies, and fragments generated from explosions, collisions, or faulty payload assembly.

Loading next visibility...
Identifier
8159, 1974-089Z
Orbit
SSO
Country
Flag of USUS
Related business
Manufacturer
Unknown
Mission
Spacecraft
Bus & Motor
Unknown
Mass
Unknown
Launch date (UTC)
1974-11-15 (51 years ago)
Launch vehicle
Unknown
Launch site
Air Force Western Test Range (AFWTR)
Object type
Payload
Rocket body
Debris
Shape & HBR
Unknown shape, 1.1 m
Radar Cross Section
Small (<0.1 m²)

Expand to show TLE details & history
Last TLE update: 3 days ago

TLE from 3 days ago
0 THORAD DELTA 1 DEB
1  8159U 74089Z   25297.98818966  .00000584  00000-0  32451-2 0  9995
2  8159 101.4025 318.1335 0021870 340.0510  19.9715 12.68108095328985
Epoch: 2025-10-24T23:42Z
TLE epoch observation values (Epoch: 2025-10-24T23:42:59.586Z)
Latitude
-0.00004°
Longitude
-71.23996°
Altitude
1,376.302 km
Speed
7.178 km/s
True Right ascension
21h 12m 32s
True Declination
0° 00' 00"
Sunlit
Object was in daylight at epoch
Visualization orbit readout
Latitude
Unknown
Longitude
Unknown
Altitude
Unknown
Speed
Unknown
Apparent Right ascension
Unknown
Apparent Declination
Unknown
Sunlit
N/A
Visualization observer readout
Local Sidereal Time
13:15:30
Azimuth
Unknown
Elevation
Unknown
Doppler factor
Unknown
Orbital elements
Apogee altitude
1,404.142 km
Perigee altitude
1,370.176 km
Semi-major axis
7,765.296 km
Eccentricity
0.00219
Inclination
101.4025°
RAAN
318.1335°
Arg. of periapsis
340.051°
True anomaly
20.05732°
Mean anomaly
19.9715°
Eccentric anomaly
20.01439°
Mean motion
3.1718 °/min
Orbital period
113.5 mins
BSTAR
0.0032451
Loading maneuver chart data...
Computing Atmospheric mass density...

Documentation

Showing up to 5 results
|